Lapse_Rate
6.8 6.9 7.2 7.2 6.9 5.9 5.2 5.1 5.2 5.0 5.3 5.5 5.2 5.3 4.9 4.6 4.7 4.6 4.6 4.8 4.8 5.0 5.1 5.1 5.0 5.0 5.1 5.0 5.1 5.4 5.6 5.5 5.6 5.7 5.8 6.0 6.2 6.1 6.1 6.1 5.7 5.7 5.7 5.7 5.6 5.2 5.4 6.0 5.8 5.8 5.7 5.9 5.8 5.8
6.9 7.1 7.2 7.2 7.1 6.7 5.8 5.2 5.2 5.3 5.1 5.5 5.5 5.5 4.8 4.6 4.6 4.5 4.3 4.4 4.6 4.8 5.0 4.8 5.1 5.3 5.2 5.1 4.9 5.1 5.4 5.6 5.7 5.7 5.9 6.1 6.3 6.1 6.3 6.1 5.7 5.9 6.1 6.2 5.9 5.9 6.0 6.1 5.7 5.6 5.7 5.8 6.0 6.0
7.0 7.2 7.2 7.2 7.0 6.5 6.0 5.3 5.5 5.2 5.1 5.2 5.3 5.3 4.9 4.6 4.5 4.5 4.4 4.2 4.2 4.8 5.2 5.1 4.9 4.8 5.1 4.9 4.9 5.2 5.2 5.5 5.6 5.7 5.9 5.8 6.0 6.3 6.3 6.2 6.0 6.0 6.0 6.0 6.0 6.5 6.3 6.2 6.1 5.9 5.8 5.7 5.9 6.0
7.2 7.5 7.4 7.2 7.1 6.2 5.7 5.9 5.4 5.1 5.1 5.1 5.2 5.2 5.0 4.7 4.5 4.5 4.1 4.0 4.0 4.2 4.6 4.9 4.9 4.8 4.9 5.3 5.3 5.4 5.2 5.1 5.3 5.6 5.7 5.8 5.8 6.1 6.5 6.5 6.3 6.2 6.1 6.4 6.4 6.5 6.6 6.4 6.3 6.3 6.1 5.8 5.9 6.1
7.4 7.5 7.4 7.4 7.4 7.1 6.5 6.2 5.7 6.2 5.7 5.5 5.2 5.2 4.9 4.6 4.3 4.2 3.8 3.7 3.8 3.9 4.3 5.0 4.8 4.9 4.9 5.1 5.2 5.1 4.9 4.4 5.5 5.5 5.5 5.7 5.9 5.9 6.3 6.2 6.4 6.5 6.6 6.3 6.0 6.1 6.1 6.0 6.3 6.2 6.0 5.9 6.0 6.0
7.3 7.3 7.1 7.2 7.6 7.5 7.4 6.9 6.6 6.3 6.0 5.7 5.4 5.0 4.8 4.5 4.2 4.1 4.0 4.0 3.8 3.6 4.0 4.8 4.8 4.9 4.9 5.0 5.1 4.9 4.7 4.1 4.8 5.9 6.0 6.0 6.0 6.1 5.9 5.8 6.4 6.8 6.7 6.4 5.9 6.4 6.1 6.0 6.0 5.9 5.9 5.9 6.0 6.1
7.1 7.0 7.1 7.4 7.6 7.9 7.6 7.2 7.0 6.7 6.4 5.8 5.4 5.0 4.8 4.6 4.5 4.1 3.7 3.6 3.7 3.8 3.8 4.6 5.0 4.8 5.1 5.1 5.0 4.7 4.1 4.5 5.4 6.2 6.9 6.9 6.6 6.2 6.0 6.1 6.3 6.9 6.8 6.7 6.6 6.4 6.2 6.1 5.9 5.9 6.0 6.0 6.1 6.2
7.1 7.0 7.0 7.3 7.5 7.9 7.8 7.4 7.0 6.8 6.7 6.0 5.7 5.2 5.0 4.9 4.7 4.5 4.3 4.0 4.1 4.2 4.5 4.9 5.2 5.4 5.3 5.0 4.6 4.9 5.0 5.4 5.8 5.6 6.6 7.0 6.8 6.6 6.2 7.5 6.9 6.8 6.8 6.7 6.5 6.5 6.4 6.3 5.9 5.8 5.9 6.0 6.0 6.0
7.2 7.0 6.9 7.2 7.3 7.5 7.7 7.4 7.1 6.6 6.4 6.2 5.8 5.3 5.1 5.0 5.0 4.7 4.4 4.8 4.9 4.5 4.8 5.2 5.6 5.7 5.9 5.8 5.7 5.8 6.0 6.9 6.6 6.5 6.7 6.9 6.8 6.5 7.4 7.7 7.3 7.0 6.8 6.8 6.7 6.7 6.6 6.4 6.4 6.3 6.0 5.9 5.9 5.8
7.1 7.0 6.9 6.9 7.1 7.4 7.6 7.3 6.5 6.6 6.3 6.0 6.0 5.3 5.2 5.3 5.1 5.0 5.3 5.5 5.3 5.2 5.4 5.7 5.9 6.0 6.0 6.2 6.3 6.5 6.7 6.7 6.9 6.8 6.7 6.6 7.1 7.4 7.3 7.3 7.1 6.9 6.7 6.5 6.4 6.4 6.4 6.4 6.4 6.3 6.1 5.9 5.8 5.7
7.1 6.8 6.9 6.9 7.1 7.3 7.4 7.2 6.5 6.2 6.5 6.1 5.9 5.7 5.2 5.3 5.3 5.4 5.7 5.6 5.3 5.5 5.7 6.0 6.1 6.4 6.3 6.5 6.6 6.7 6.7 6.8 6.9 7.0 6.7 6.6 7.2 7.5 7.2 7.2 7.0 6.7 6.6 6.2 5.7 5.9 6.3 6.3 6.1 5.9 5.7 5.5 5.8 5.8
7.0 6.9 7.0 7.0 7.1 7.2 7.5 6.9 6.3 6.0 6.1 6.1 5.8 5.8 5.4 5.3 5.3 5.5 5.8 5.7 5.5 5.6 5.8 6.1 6.0 6.3 6.4 6.3 6.5 6.6 6.6 6.7 6.6 6.6 6.6 6.4 7.4 7.1 7.1 7.0 7.1 7.0 6.6 6.4 6.0 5.9 6.0 5.9 5.9 5.9 5.9 5.8 5.9 5.9
7.0 7.1 6.9 6.7 6.8 7.2 7.0 6.1 6.1 6.1 5.9 6.3 5.8 5.5 5.4 5.4 5.4 5.3 5.7 5.7 5.8 5.7 5.9 6.0 6.0 6.1 6.2 6.5 6.5 6.6 6.4 6.4 6.4 6.4 6.4 7.0 7.1 7.2 7.2 7.0 7.0 6.8 6.5 6.3 6.3 6.2 6.1 6.0 6.0 6.2 6.1 6.0 5.9 5.9
6.9 6.9 7.0 6.7 6.9 6.9 6.3 6.2 6.4 6.1 6.5 6.2 5.7 5.6 5.7 5.5 5.5 5.6 5.8 5.9 6.0 5.9 5.9 5.9 6.0 6.1 6.3 6.4 6.3 6.3 6.3 6.4 6.1 6.2 6.5 6.8 6.9 7.1 7.0 7.0 6.9 6.6 6.7 6.5 6.2 6.3 6.3 6.1 6.0 6.2 6.2 6.2 6.1 6.1
6.9 6.9 6.9 7.0 6.9 6.0 5.8 6.2 6.3 6.2 6.3 6.2 5.9 5.8 5.7 5.7 5.5 5.6 5.6 5.8 6.0 6.1 6.0 6.0 6.1 6.1 6.3 6.3 6.4 6.3 6.1 5.9 6.1 6.5 6.8 6.8 6.8 6.9 6.8 6.7 6.6 6.6 6.7 6.5 6.4 6.5 6.4 6.3 6.3 6.2 6.1 6.0 5.9 6.0
6.9 7.0 7.0 6.3 6.3 5.7 5.9 6.2 6.1 6.1 6.0 6.1 6.0 6.3 5.9 5.9 5.7 5.6 5.7 5.9 5.9 6.1 6.1 6.0 6.0 6.2 6.2 6.3 6.2 6.1 6.1 6.3 6.6 6.7 6.7 6.7 6.7 6.9 6.6 6.5 6.6 6.6 6.6 6.6 6.6 6.5 6.5 6.6 6.5 6.4 6.5 6.5 6.5 6.6
6.9 7.2 7.3 6.2 5.6 5.9 6.2 6.1 6.0 6.0 5.8 6.2 6.8 6.6 6.3 6.3 6.0 5.8 5.7 5.6 5.8 5.9 6.0 6.1 6.1 5.9 6.1 6.1 6.1 6.3 6.5 6.5 6.5 6.5 6.7 6.8 6.8 6.4 6.0 6.3 6.4 6.4 6.6 6.5 6.5 6.5 6.4 6.4 6.6 6.7 6.7 6.8 6.8 6.8
7.0 6.8 5.9 5.9 6.0 6.2 6.2 6.0 6.1 6.0 6.2 6.6 6.7 6.6 6.5 6.2 6.1 6.0 6.0 5.9 5.8 5.8 5.7 5.6 5.8 5.9 6.0 6.1 6.6 6.5 6.2 6.1 6.2 6.3 6.3 6.5 6.4 5.9 6.0 6.1 6.1 6.2 6.3 6.3 6.4 6.5 6.6 6.8 6.9 7.0 7.1 7.1 7.1 7.0
6.9 6.2 6.1 6.2 6.2 6.3 6.1 6.2 6.2 6.2 6.6 6.7 6.9 6.7 6.4 6.3 6.4 6.2 6.1 6.0 5.9 5.7 5.6 5.5 5.5 5.8 6.5 6.4 6.3 6.0 6.1 6.0 6.0 6.1 6.3 6.3 6.2 6.4 6.2 6.1 6.1 6.2 6.2 6.4 6.5 6.6 6.7 6.9 7.0 7.0 7.0 6.9 6.7 6.5
6.4 6.0 6.3 6.5 6.4 6.1 6.2 6.4 6.5 6.4 6.7 7.0 7.1 6.8 6.6 6.5 6.4 6.4 6.3 6.3 6.2 6.0 5.9 5.9 6.3 6.0 5.7 5.4 5.3 5.3 5.5 5.7 5.7 6.0 6.3 6.3 6.2 6.2 6.3 6.2 6.0 6.0 6.2 6.3 6.5 6.6 6.8 6.8 6.8 6.8 6.7 6.5 6.4 6.3
6.3 6.6 6.6 6.5 6.4 6.5 6.5 6.6 6.6 6.7 6.9 7.1 7.2 7.0 6.9 6.8 7.0 7.0 7.0 6.9 6.9 6.8 6.7 6.6 6.5 6.2 5.7 5.6 5.6 5.8 5.7 5.8 5.9 6.2 6.3 6.3 6.3 6.3 6.2 6.2 6.1 6.1 6.2 6.3 6.4 6.5 6.5 6.5 6.5 6.4 6.4 6.3 6.3 6.2
6.7 6.6 6.6 6.7 6.7 6.6 6.6 6.6 6.7 7.2 7.4 7.3 7.3 7.3 7.3 7.4 7.4 7.3 7.3 7.3 7.2 7.0 7.0 6.9 6.7 6.6 6.3 6.1 6.1 6.0 6.0 6.0 6.0 6.2 6.2 6.2 6.3 6.3 6.3 6.3 6.3 6.2 6.2 6.3 6.3 6.4 6.4 6.4 6.3 6.3 6.2 6.2 6.3 6.4
7.1 7.0 6.8 6.7 6.7 6.6 6.6 7.1 7.3 7.4 7.4 7.5 7.5 7.4 7.5 7.5 7.6 7.6 7.6 7.5 7.5 7.4 7.2 7.2 7.1 6.8 6.7 6.5 6.4 6.2 6.0 6.0 6.0 6.1 6.0 6.0 6.2 6.1 6.2 6.3 6.3 6.3 6.3 6.3 6.3 6.3 6.3 6.3 6.2 6.1 6.1 6.1 6.1 6.2
7.2 7.0 6.9 6.8 6.7 6.6 7.2 7.5 7.7 7.7 7.6 7.6 7.6 7.5 7.5 7.6 7.6 7.7 7.7 7.7 7.5 7.4 7.3 7.4 7.3 7.0 6.8 6.6 6.5 6.4 6.3 6.3 6.3 6.2 6.0 5.9 6.0 6.0 6.2 6.3 6.1 6.0 6.1 6.2 6.2 6.2 6.1 6.0 6.1 6.1 6.1 6.1 6.1 6.1
7.0 6.9 6.9 6.9 7.0 7.4 7.6 7.7 7.8 7.9 7.9 7.7 7.5 7.4 7.4 7.4 7.4 7.4 7.7 7.7 7.5 7.4 7.4 7.4 7.3 7.1 6.9 6.5 6.3 6.2 6.2 6.3 6.2 6.1 5.9 6.1 6.1 6.3 6.3 6.0 5.8 5.8 5.9 5.8 5.8 5.8 5.8 5.8 5.9 5.9 6.0 6.1 6.1 6.1
7.1 7.2 7.4 7.6 7.6 7.7 7.8 8.0 8.0 7.9 7.8 7.7 7.5 7.4 7.4 7.1 7.1 7.3 7.5 7.6 7.5 7.3 7.3 7.4 7.3 7.3 7.2 7.0 6.6 6.4 6.2 6.1 6.1 5.9 6.0 6.0 6.0 5.9 5.9 6.1 5.9 5.7 5.7 5.6 5.4 5.4 5.5 5.7 5.7 5.8 5.9 6.0 6.0 6.0
7.7 7.5 7.6 7.8 7.7 7.8 7.9 7.8 7.8 7.7 7.6 7.5 7.5 7.3 7.0 6.8 7.0 7.2 7.3 7.3 7.3 7.2 7.1 7.1 7.2 7.2 7.2 7.0 6.8 6.7 6.6 6.5 6.3 6.3 6.3 6.1 6.0 6.0 6.0 5.9 5.8 5.6 5.7 5.5 5.4 5.4 5.5 5.5 5.6 5.7 5.8 5.8 5.8 5.9
7.9 7.9 7.6 7.7 7.7 7.6 7.5 7.4 7.3 7.3 7.3 7.2 7.2 7.2 7.1 7.1 7.1 6.9 6.8 6.6 6.6 6.6 6.9 7.1 7.2 7.2 7.0 7.0 7.0 7.0 6.8 6.6 6.6 6.6 6.4 6.2 6.1 6.0 5.7 5.6 5.6 5.6 5.6 5.5 5.5 5.5 5.5 5.5 5.6 5.7 5.8 5.8 5.7 5.7
7.8 7.7 7.7 7.5 7.3 7.1 7.0 7.0 7.0 7.0 6.9 6.8 6.8 6.6 6.6 6.6 6.4 6.3 6.3 6.4 6.4 6.3 6.5 6.8 6.9 7.0 7.3 7.2 7.2 7.3 7.3 7.2 6.9 6.8 6.7 6.6 6.3 6.1 5.6 5.8 5.8 5.7 5.6 5.4 5.4 5.4 5.5 5.5 5.5 5.5 5.6 5.7 5.8 5.9
7.8 7.5 7.3 7.2 7.0 6.9 6.9 6.7 6.7 6.6 6.5 6.5 6.6 6.7 6.8 6.8 6.8 6.6 6.7 6.8 7.0 7.0 6.9 6.9 7.0 7.0 7.2 7.4 7.6 7.5 7.4 7.5 7.4 7.1 6.9 6.8 6.7 6.4 6.0 6.0 6.0 5.9 5.8 5.5 5.3 5.4 5.5 5.6 5.6 5.6 5.7 5.7 5.7 5.7
7.4 7.3 7.2 7.0 6.9 6.9 6.7 6.5 6.5 6.4 6.4 6.4 6.5 6.7 7.0 6.8 7.0 7.0 7.0 7.1 7.0 7.0 7.1 7.3 7.3 7.3 7.3 7.5 7.7 8.0 8.1 7.8 7.6 7.4 6.9 6.7 6.8 6.7 6.4 6.2 6.1 6.0 5.8 5.6 5.5 5.5 5.5 5.6 5.6 5.7 5.6 5.6 5.5 5.6
7.2 7.2 7.0 7.0 7.0 6.9 6.7 6.7 6.6 6.6 6.6 6.6 6.5 6.4 6.3 6.2 6.6 7.1 7.2 6.7 6.5 6.5 6.6 6.6 7.1 7.5 7.7 8.0 8.2 8.3 8.3 8.0 7.6 7.2 6.8 6.7 6.7 6.7 6.6 6.5 6.3 6.1 6.0 5.8 5.7 5.7 5.7 5.6 5.6 5.6 5.6 5.5 5.4 5.3
7.3 7.1 7.0 7.0 7.1 7.0 6.8 6.5 6.5 6.5 6.8 6.8 6.8 6.7 6.9 6.9 7.1 7.3 7.2 6.9 6.5 6.4 6.4 6.3 6.6 7.1 7.6 7.8 7.7 7.6 7.5 7.2 7.0 6.8 6.7 6.7 6.7 6.8 6.7 6.6 6.5 6.3 6.1 5.9 5.7 5.6 5.6 5.5 5.5 5.4 5.2 5.1 5.0 4.9
Wind_Speed
20 20 19 17 15 14 11 7 6 4 7 8 10 12 12 9 8 3 3 2 3 3 10 8 8 8 6 3 3 5 3 3 4 6 4 4 5 6 4 5 6 9 6 5 7 5 7 5 8 3 6 6 6 4
23 21 20 17 15 12 10 9 7 3 5 7 8 13 12 7 10 5 3 2 3 4 6 10 14 15 15 11 4 4 5 6 4 5 6 4 5 4 8 4 9 5 6 3 7 4 3 4 2 7 5 5 4 3
23 23 22 18 15 10 10 10 4 5 6 7 9 12 12 7 6 4 2 2 1 3 8 6 4 5 11 13 12 4 3 5 4 7 3 3 6 5 6 9 7 8 8 3 3 5 10 4 8 4 2 3 4 0
24 24 20 18 14 12 11 9 8 8 7 8 12 12 11 10 9 3 2 1 3 3 4 3 2 3 4 6 11 17 12 2 6 6 4 5 6 4 6 2 7 1 11 9 8 10 3 6 7 4 4 4 0 2
22 21 19 17 15 13 13 12 9 8 6 9 14 13 11 9 5 5 7 6 7 3 3 7 16 7 4 11 15 14 14 11 1 4 4 5 2 3 1 2 8 6 8 8 6 5 7 1 8 4 3 1 1 4
20 19 18 17 14 13 13 11 8 7 5 10 9 8 7 8 7 3 2 2 4 2 2 4 4 4 1 4 7 13 9 5 3 2 5 3 1 4 4 5 9 10 10 9 8 2 3 6 2 2 2 2 5 6
19 18 20 16 14 12 12 11 11 8 6 7 9 10 11 11 4 3 3 2 7 4 2 4 4 2 3 3 4 6 7 3 4 3 4 3 4 4 2 5 1 5 7 7 4 4 3 5 2 3 4 6 6 7
20 18 16 16 15 14 14 13 11 8 9 9 10 12 11 7 2 2 1 7 8 1 2 3 4 3 9 4 3 5 4 4 5 2 3 3 3 1 4 10 11 6 5 6 6 2 3 2 3 5 4 6 7 7
18 16 16 15 16 16 15 15 10 7 8 8 9 10 3 3 2 1 1 6 5 2 3 3 3 2 3 2 3 4 5 4 2 4 3 2 2 5 6 6 7 8 7 5 6 3 2 3 4 5 5 7 9 8
15 15 14 14 15 16 17 12 7 3 3 5 3 2 2 1 2 3 3 2 3 3 3 3 2 3 2 2 2 3 3 2 3 3 3 3 3 8 4 3 6 5 5 5 3 3 2 2 3 5 7 7 8 9
16 16 15 14 17 18 16 12 7 4 1 1 2 1 2 3 1 1 2 3 3 3 4 4 3 3 2 2 1 1 1 1 2 1 3 2 3 3 3 4 5 5 4 3 1 2 2 3 4 6 7 7 9 10
18 18 16 17 19 20 16 12 10 3 1 2 2 2 1 2 2 3 3 2 4 2 3 2 2 2 3 2 1 1 1 1 1 2 2 3 1 4 5 5 4 4 3 3 3 2 3 3 4 5 6 8 8 8
18 17 19 21 20 21 18 14 12 8 5 0 1 2 1 2 4 4 3 3 2 2 2 2 3 2 2 1 0 1 2 1 0 2 3 3 4 4 4 5 5 4 4 4 4 2 2 3 2 3 6 5 7 7
19 18 23 22 21 21 18 15 15 7 2 0 1 3 4 3 4 2 2 3 2 2 4 3 2 2 1 1 1 2 1 1 2 3 3 1 5 7 5 4 5 5 4 4 3 2 3 4 4 4 5 5 6 5
19 21 23 25 25 23 19 17 13 2 1 2 2 4 5 3 3 2 1 2 1 2 3 3 3 2 1 2 1 0 2 3 3 2 1 2 6 7 6 6 4 5 3 4 3 3 4 4 4 4 5 6 6 6
14 12 9 24 23 24 22 17 4 1 1 2 3 3 4 3 2 2 2 2 0 2 2 2 2 2 3 2 3 4 2 3 1 1 2 5 7 7 7 6 5 3 3 2 1 2 3 4 4 5 4 6 6 6
15 2 26 27 26 27 20 4 2 2 3 4 3 4 5 3 4 2 2 1 1 1 2 2 3 1 2 2 3 3 3 1 2 2 0 3 6 6 6 6 5 5 3 1 0 1 2 3 4 3 5 6 7 6
2 14 30 31 23 8 2 2 2 3 5 4 3 2 3 4 3 2 2 1 1 0 1 2 3 3 3 3 2 1 1 1 1 2 0 3 5 5 4 5 5 4 3 2 1 1 1 2 2 3 4 5 5 4
13 22 37 32 11 5 3 2 1 3 4 1 2 2 2 3 3 3 3 2 1 1 2 2 4 4 4 2 2 1 1 1 1 1 1 1 5 6 4 3 3 2 2 2 2 1 1 1 2 2 3 3 3 4
31 37 32 22 9 2 3 2 0 2 2 1 1 1 2 2 2 2 2 2 2 1 4 4 5 3 2 2 1 2 2 2 1 2 1 3 3 3 5 5 4 3 3 3 2 3 2 1 1 1 2 2 3 3
16 16 16 7 2 3 2 3 2 1 0 1 1 0 2 2 2 1 1 2 2 3 4 6 7 6 2 4 3 2 3 1 3 3 1 1 3 3 3 4 3 3 3 3 4 3 3 2 1 1 2 2 2 3
4 12 3 2 2 1 3 1 1 2 2 0 2 1 2 2 2 2 1 3 4 4 4 3 4 4 5 5 3 3 5 4 3 3 3 3 3 4 5 5 5 4 4 3 3 3 2 1 1 2 2 3 3 4
12 3 3 2 3 2 3 1 2 1 2 2 2 2 2 2 1 1 2 3 4 4 4 3 4 2 5 7 5 5 4 5 4 4 4 4 2 2 3 4 5 4 4 4 3 3 2 3 2 3 2 3 3 3
5 2 3 3 2 3 3 2 1 2 1 2 1 2 2 1 1 2 3 3 3 1 3 4 3 4 3 4 4 4 3 4 4 3 3 4 3 4 3 3 4 4 2 2 3 3 3 3 4 3 3 3 3 3
3 2 2 3 2 4 3 4 3 3 2 2 2 2 2 1 1 3 3 3 2 2 1 0 2 2 2 3 3 3 1 2 4 5 3 5 3 1 2 2 3 3 4 4 4 4 4 3 3 4 4 4 4 4
3 2 1 3 3 3 4 4 4 5 3 3 4 1 1 1 2 5 3 3 3 3 2 2 1 1 2 3 3 2 1 0 3 4 2 5 5 5 4 4 4 4 7 6 4 5 5 5 5 5 5 6 7 5
4 3 2 1 2 4 2 1 2 2 4 5 4 4 3 3 5 4 2 2 2 3 3 3 3 3 3 3 3 3 2 3 4 2 3 3 4 5 5 5 7 3 4 7 6 6 6 5 5 5 5 4 4 4
2 3 5 4 2 1 3 2 4 5 3 3 5 5 6 6 3 1 2 1 2 1 2 3 4 4 5 5 4 3 3 2 2 3 4 6 6 5 6 5 2 4 3 4 5 5 5 4 4 5 5 5 4 4
2 3 3 3 1 2 4 6 4 3 3 4 4 4 4 3 2 2 2 2 1 1 3 5 6 5 5 5 4 4 4 4 5 6 8 7 4 5 7 6 4 5 4 4 9 7 6 4 4 4 4 4 4 4
2 3 3 3 4 5 4 6 2 1 1 2 2 3 2 3 4 2 2 3 4 7 9 10 10 8 9 7 8 6 6 7 8 9 9 9 6 2 3 4 5 5 4 4 4 2 6 4 3 1 2 3 3 5
2 3 2 3 4 3 0 2 2 2 2 3 1 4 5 4 4 3 7 10 11 10 10 11 11 8 7 9 8 8 8 6 11 13 11 6 1 2 3 3 3 4 4 5 4 4 3 3 3 4 5 6 7 8
3 4 3 3 3 1 1 2 1 2 2 2 3 3 2 2 5 3 3 3 6 9 15 12 9 9 5 6 4 4 11 1 3 4 7 6 6 4 4 4 4 4 4 4 3 3 5 6 5 5 5 7 7 7
1 1 1 3 3 3 1 2 1 4 3 3 4 4 4 3 7 3 1 1 3 3 3 3 4 3 3 3 2 2 3 1 1 3 5 6 8 8 4 3 4 4 5 4 4 5 6 7 6 7 7 7 6 6
Wind_Direction
192 192 195 195 201 213 225 231 261 276 321 331 336 340 331 343 342 291 328 282 325 288 289 270 284 275 279 280 304 14 201 213 198 221 217 201 242 210 231 211 184 189 197 200 211 213 254 120 141 235 103 82 42 81
192 191 195 201 206 224 236 240 276 237 307 311 328 330 324 315 346 305 284 157 250 253 276 297 268 269 267 269 297 308 320 309 232 227 218 206 213 195 230 225 186 217 221 207 210 219 132 184 249 121 101 72 46 74
187 190 195 201 207 225 237 245 205 216 266 281 310 330 352 333 328 290 262 305 226 279 284 250 253 284 229 239 240 238 255 327 293 357 308 234 239 200 202 231 209 227 223 237 203 244 237 211 195 186 179 100 114 108
187 191 195 197 206 227 222 218 216 225 268 295 310 317 327 309 299 297 223 199 253 300 278 307 236 281 222 215 216 224 254 336 350 322 251 224 229 202 241 326 228 270 160 214 240 263 272 243 207 211 150 134 177 308
187 186 191 200 211 226 219 217 217 227 248 294 303 308 321 324 357 316 274 269 247 242 300 298 301 307 220 249 229 223 228 249 269 304 253 226 222 189 207 273 237 195 212 212 233 235 232 343 148 130 191 211 309 297
180 185 197 201 214 225 219 214 211 210 244 296 304 317 329 314 325 281 257 169 207 151 292 289 334 285 231 289 227 209 219 210 161 214 268 273 250 234 220 246 248 217 231 252 260 112 75 114 147 146 176 285 304 291
181 196 205 202 203 213 206 212 202 219 257 277 302 313 312 307 251 228 337 76 159 173 256 286 277 228 135 140 168 175 160 179 178 191 263 232 209 211 247 241 314 216 215 206 195 159 207 192 155 172 289 299 301 284
189 203 209 204 203 214 204 202 211 228 269 264 291 306 310 289 205 246 256 164 154 223 245 274 274 261 184 176 152 183 182 188 188 216 255 261 157 144 249 240 255 243 182 172 178 164 39 32 305 291 304 301 296 280
201 205 209 204 214 216 195 200 222 249 268 284 300 300 248 229 224 83 24 192 173 264 284 242 278 321 160 228 143 184 213 178 149 216 213 267 176 219 245 269 248 202 200 194 157 186 233 267 279 293 294 289 277 280
214 209 208 220 229 200 192 203 214 244 296 316 277 228 237 129 326 305 131 186 205 196 219 255 284 263 268 170 219 162 216 196 198 216 133 217 245 241 238 305 288 165 147 141 174 205 178 244 261 299 297 299 289 286
215 211 216 221 202 186 193 186 178 170 251 251 264 245 18 317 211 221 235 222 179 230 203 237 243 275 222 251 135 329 168 227 235 160 241 232 253 156 122 119 88 97 98 94 43 3 343 318 301 297 298 297 292 285
214 212 210 205 195 194 185 174 165 165 314 60 321 300 301 261 212 259 237 212 221 268 182 248 312 246 291 292 194 207 198 240 251 131 244 256 117 123 150 138 111 103 112 99 59 38 10 340 328 315 302 307 310 303
226 218 207 200 197 191 173 169 162 124 128 77 268 280 250 169 236 228 212 208 240 338 19 317 312 299 284 333 45 267 238 221 349 232 242 251 127 147 150 139 112 92 92 89 71 43 354 321 329 336 314 316 322 333
223 218 196 192 189 176 171 169 152 131 117 267 276 274 228 206 237 235 310 352 351 307 325 306 278 308 319 276 265 249 75 233 247 241 233 99 170 155 147 135 138 112 106 88 64 37 12 356 352 337 344 343 338 346
235 208 201 186 176 170 166 158 140 79 143 169 189 243 239 279 269 258 252 284 268 303 315 306 288 254 276 265 221 341 219 246 243 263 33 139 147 149 146 143 135 120 116 85 46 11 5 356 353 356 3 353 349 345
215 224 188 158 169 161 148 118 68 101 83 168 217 252 236 283 259 257 234 251 238 310 284 236 276 265 244 260 202 219 246 241 318 335 58 140 157 155 150 146 134 92 84 82 43 8 345 350 351 345 349 7 355 351
185 195 156 159 155 140 131 92 122 206 240 209 227 239 262 289 271 290 298 315 11 298 301 308 257 304 319 236 227 221 223 304 350 0 19 171 165 162 153 147 152 158 192 157 168 13 356 341 331 358 2 356 345 344
130 156 152 144 125 92 58 71 118 201 243 221 224 174 207 250 264 266 283 301 283 254 251 305 320 249 248 241 227 247 317 339 310 335 325 154 149 143 158 163 163 163 161 154 118 275 289 327 342 3 346 350 327 352
154 154 146 142 121 112 125 127 183 239 226 235 256 247 267 283 303 299 283 275 332 354 308 273 257 236 236 246 301 295 262 240 309 131 130 181 171 171 164 120 137 163 174 182 217 245 302 315 321 335 332 336 345 344
146 142 135 124 95 102 105 131 218 241 237 118 181 171 271 273 296 277 264 249 241 236 224 223 228 244 262 8 339 343 352 343 265 264 168 212 199 156 181 180 193 171 184 191 229 241 250 257 222 310 313 323 325 331
105 117 97 81 81 67 73 150 174 235 211 238 82 253 268 293 246 217 205 344 234 230 236 238 244 256 283 276 280 297 288 247 256 287 7 293 184 195 185 193 167 187 214 213 226 221 230 250 257 283 283 306 312 303
107 118 111 80 100 103 93 138 100 114 198 76 180 195 239 235 183 151 326 208 235 238 228 266 273 288 288 283 296 259 277 264 238 244 225 168 177 199 215 198 185 205 212 218 213 226 221 204 227 252 277 302 317 311
102 80 85 128 121 159 114 184 171 171 216 175 186 210 201 214 149 335 248 232 259 246 253 270 274 276 273 289 283 266 249 255 255 238 235 220 221 196 189 188 195 197 202 214 205 214 211 198 228 265 273 283 300 309
88 100 135 123 120 124 141 135 153 158 216 219 209 220 179 181 317 212 255 247 241 234 231 241 263 287 259 235 265 270 250 208 229 240 225 215 214 224 206 197 195 208 200 121 172 193 201 224 241 242 244 260 274 289
133 119 125 118 108 122 159 162 166 185 225 180 209 228 171 268 241 236 242 256 216 231 235 191 246 245 274 294 300 293 185 237 259 254 214 204 190 124 204 216 222 211 170 186 205 208 213 203 218 229 229 235 252 277
103 45 193 136 149 179 171 176 196 193 179 187 222 86 205 211 237 239 225 211 205 196 188 186 203 236 229 214 279 301 8 300 262 254 248 198 204 208 208 199 214 232 195 205 193 202 203 197 215 215 226 237 255 276
133 150 132 27 90 105 91 73 117 178 181 202 178 162 159 216 239 244 252 214 198 193 192 184 189 207 247 264 232 232 214 199 210 257 319 303 253 233 221 212 220 217 161 187 196 199 204 197 207 214 226 229 234 244
106 181 168 174 129 17 150 176 180 210 216 170 141 189 197 207 241 251 229 154 201 176 220 228 228 226 232 231 226 225 224 193 232 264 263 249 228 228 229 235 203 183 172 180 190 185 187 187 192 200 212 234 246 235
143 140 120 127 123 211 221 200 218 220 174 169 191 215 227 214 247 231 215 194 137 233 266 262 256 222 238 242 232 227 213 185 188 225 241 251 253 239 199 202 197 196 171 172 196 185 189 178 186 203 218 232 241 240
187 141 115 134 172 220 237 188 232 60 222 243 289 291 260 247 244 200 204 207 230 242 248 257 268 260 255 253 259 238 209 208 211 221 239 244 244 142 166 175 180 169 163 172 184 184 217 208 219 215 238 217 222 239
94 146 164 190 233 240 344 354 268 258 248 245 236 250 267 313 310 238 232 244 251 256 258 258 256 246 244 247 242 253 265 212 221 225 235 258 161 158 159 152 139 141 154 158 163 166 172 203 209 223 231 236 242 255
161 197 194 224 258 119 236 221 287 260 212 233 239 198 281 260 258 259 209 209 232 242 249 253 255 260 236 231 242 239 245 182 180 210 219 231 211 183 153 141 136 139 147 160 170 176 192 215 224 224 234 242 246 245
91 189 252 277 281 258 154 230 262 283 233 241 234 207 208 234 248 274 90 225 250 280 304 316 325 324 324 298 304 297 260 112 195 199 212 207 197 184 159 153 154 162 170 183 191 197 209 220 232 237 239 243 249 252